STARLINK-33740, 63451

Orbit data source: Space-Track

STARLINK-33740, 63451 is a payload satellite owned by SpaceX/Seattle (US) in LEO that was launched on Fri, 04 Apr 2025 UTC via an FALCON 9 launch vehicle from the Air Force Western Test Range (AFWTR). Payload-class satellites include a variety of spacecraft equipped with specific instruments for various scientific and technological missions. These include communications satellites like Starlink; space stations such as the ISS; scientific satellites like the Hubble; Earth observation satellites from companies like Planet Labs, Umbra, and HawkEye 360; GPS; miniature CubeSats for education and research; and military/defense satellites.

Loading next visibility...
Identifier
63451, 2025-069U
Orbit
LEO
Country
Flag of USUS
Related business
Manufacturer
SpaceX/Seattle
Mission
Operational Commercial Communications
Bus & Motor
STARLINK V2MO, Unknown motor
Mass
575 kg wet, ~530 kg dry
Launch date (UTC)
2025-04-04 (8 months ago)
Launch vehicle
FALCON 9
Launch site
Air Force Western Test Range (AFWTR)
Object type
Payload
Rocket body
Debris
Shape & HBR
Box + 2 Pan, 17.7 m
Radar Cross Section
36.964 m², Large (>1 m²)

Expand to show TLE details & history
Last TLE update: 19 hours ago

TLE from 19 hours ago
0 STARLINK-33740
1 63451U 25069U   25348.90186820  .00014946  00000-0  51603-3 0  9999
2 63451  53.1589 176.2824 0001161  77.6867 282.4263 15.30180769 40317
Epoch: 2025-12-14T21:38Z
TLE epoch observation values (Epoch: 2025-12-14T21:38:41.412Z)
Latitude
-0.00008°
Longitude
127.80166°
Altitude
476.001 km
Speed
7.629 km/s
True Right ascension
11h 45m 07s
True Declination
0° 00' 00"
Sunlit
Object was in daylight at epoch
Visualization orbit readout
Latitude
Unknown
Longitude
Unknown
Altitude
Unknown
Speed
Unknown
Apparent Right ascension
Unknown
Apparent Declination
Unknown
Sunlit
N/A
Visualization observer readout
Local Sidereal Time
15:08:57
Azimuth
Unknown
Elevation
Unknown
Doppler factor
Unknown
Orbital elements
Apogee altitude
476.325 km
Perigee altitude
474.733 km
Semi-major axis
6,853.666 km
Eccentricity
0.00012
Inclination
53.1589°
RAAN
176.2824°
Arg. of periapsis
77.6867°
True anomaly
282.41331°
Mean anomaly
282.4263°
Eccentric anomaly
282.4198°
Mean motion
3.82524 °/min
Orbital period
94.11 mins
BSTAR
0.00051603
Loading maneuver chart data...
Computing Atmospheric mass density...
Loading historical data...
Loading historical data...
Loading historical data...
Loading historical data...
Loading historical data...
Loading historical data...
Loading historical data...

Documentation

Showing up to 5 results
|